Location: Prague
(50.0830°N, 14.4670°E)
Time: 02:39:47
(UTC+01:00)

BEESAT 2 - Visible Passes

Search period start: 06 December 2021 00:00
Search period end: 16 December 2021 00:00
Orbit: 497 x 516 km, 64.9° (Epoch: 05 December)

Date Brightness Start Highest point End Pass type
(mag) Time Alt. Az. Time Alt. Az. Time Alt. Az.
06 Dec ? 04:41:40 29° ENE 04:41:40 29° ENE 04:44:23 10° ESE visible
06 Dec ? 06:16:30 23° WNW 06:18:21 37° WSW 06:21:55 10° S visible
07 Dec ? 04:24:04 21° E 04:24:04 21° E 04:25:46 10° ESE visible
07 Dec ? 05:58:54 34° W 05:59:46 39° WSW 06:03:23 10° S visible
08 Dec ? 04:06:32 13° E 04:06:32 13° E 04:07:08 10° ESE visible
08 Dec ? 05:41:22 40° SW 05:41:22 40° SW 05:44:50 10° SSE visible
09 Dec ? 05:23:54 31° SSW 05:23:54 31° SSW 05:26:16 10° SSE visible
10 Dec ? 05:06:31 18° S 05:06:31 18° S 05:07:42 10° SSE visible
15 Dec ? 18:56:28 10° SSW 18:57:15 15° SSW 18:57:15 15° SSW visible
